Вернуться в каталог

STARLINK-37976

АктивенСвязьSSO
NORAD 69697·PAYLOAD·🇺🇸 United States

Запущен Jun 25, 2026 с Vandenberg Space Force Base

Loading…

Ближайшие Пролёты (ближайшие 24 часа)

TLE

СвежийSource: CelesTrak SupGP

Эпоха: Sep 15, 2026, 04:14 UTC

1 69697C 26145W   26258.17687500 -.00043657  00000+0 -13549-2 0  2580
2 69697  97.2851 104.9808 0001794  90.6461 191.4766 15.33467557    19

Отслеживайте STARLINK-37976 в реальном времени с AllMySat

Download on the App Store